STARLINK-35927, 66624

Orbit data source: Space-Track

STARLINK-35927, 66624 is a payload satellite owned by SpaceX/Seattle (US) in LEO that was launched on Sun, 23 Nov 2025 UTC via an FALCON 9 launch vehicle from the Air Force Western Test Range (AFWTR). Payload-class satellites include a variety of spacecraft equipped with specific instruments for various scientific and technological missions. These include communications satellites like Starlink; space stations such as the ISS; scientific satellites like the Hubble; Earth observation satellites from companies like Planet Labs, Umbra, and HawkEye 360; GPS; miniature CubeSats for education and research; and military/defense satellites.

Loading next visibility...
Identifier
66624, 2025-271H
Orbit
LEO
Country
Flag of USUS
Related business
Manufacturer
SpaceX/Seattle
Mission
Operational Commercial Communications
Bus & Motor
STARLINK V2MO, Unknown motor
Mass
575 kg wet, ~530 kg dry
Launch date (UTC)
2025-11-23 (5 months ago)
Launch vehicle
FALCON 9
Launch site
Air Force Western Test Range (AFWTR)
Object type
Payload
Rocket body
Debris
Shape & HBR
Box + 2 Pan, 17.7 m
Radar Cross Section
36.964 m²

Expand to show TLE details & history
Last TLE update: 6 hours ago

TLE from 6 hours ago
0 STARLINK-35927
1 66624U 25271H   26128.27637093  .00016071  00000-0  55315-3 0  9994
2 66624  53.1570 222.8726 0000859  88.0855 272.0245 15.30223779 26696
Epoch: 2026-05-08T06:37Z
TLE epoch observation values (Epoch: 2026-05-08T06:37:58.448Z)
Latitude
0.00006°
Longitude
-102.73137°
Altitude
476.023 km
Speed
7.629 km/s
True Right ascension
14h 51m 29s
True Declination
0° 00' 00"
Sunlit
Object was in full shadow at epoch
Visualization orbit readout
Latitude
Unknown
Longitude
Unknown
Altitude
Unknown
Speed
Unknown
Apparent Right ascension
Unknown
Apparent Declination
Unknown
Sunlit
N/A
Visualization observer readout
Local Sidereal Time
20:52:10
Azimuth
Unknown
Elevation
Unknown
Doppler factor
Unknown
Orbital elements
Apogee altitude
475.99 km
Perigee altitude
474.812 km
Semi-major axis
6,853.538 km
Eccentricity
0.00009
Inclination
53.157°
RAAN
222.8726°
Arg. of periapsis
88.0855°
True anomaly
272.01466°
Mean anomaly
272.0245°
Eccentric anomaly
272.01958°
Mean motion
3.82535 °/min
Orbital period
94.11 mins
BSTAR
0.00055315
Loading maneuver chart data...
Computing Atmospheric mass density...
Loading historical data...
Loading historical data...
Loading historical data...
Loading historical data...
Loading historical data...
Loading historical data...
Loading historical data...

Documentation

Showing up to 5 results
|